loading
|
Showing default

ZHUHAI-1 OHS-01, 43439

Orbit data source: Space-Track

ZHUHAI-1 OHS-01, 43439 is a payload satellite owned by Zhuhai Orbita (CN) in LEO that was launched on Thu, 26 Apr 2018 UTC via a CHANG ZHENG 11 launch vehicle from the Jiuquan Satellite Launch Center, China (JSC). Payloads include a variety of satellites, spacecraft, and rockets equipped with specific instruments for various scientific and technological missions. These include communications satellites like Starlink; space stations such as the ISS; scientific satellites like the Hubble; Earth observation satellites from companies like Planet Labs, Umbra, and HawkEye 360; GPS; miniature CubeSats for education and research; and military/defense satellites.

Loading next visibility...
Loading greatness...
ZHUHAI-1 OHS-01 details
Identifier
43439, 2018-040A
Orbit
LEO
Last TLE update8 hours ago
Origin
Flag of CNZhuhai Orbita (CN / PRC)
ManufacturerHarbin
Mission statusOperational
MissionCommercial Imaging
Bus & MotorOHS-1, Unknown motor
Mass~50 kg wet, ~50 kg dry
Launch date (UTC)
2018-04-26 (6 years ago)
Launch vehicle
CHANG ZHENG 11
Launch site
Jiuquan Satellite Launch Center, China (JSC)
Object type
Payload
Rocket body
Debris
Radar Cross SectionMedium (>0.1 m² and <1 m²)

Expand to show TLE details & history

TLE from 8 hours ago
0 ZHUHAI-1 OHS-01
1 43439U 18040A   24261.57890504  .00326142  00000-0  28921-2 0  9991
2 43439  97.1029 308.4611 0004792 112.8683 247.3085 15.67563822355936
Epoch: 2024-09-17T13:53Z
Definitive object data (Epoch: 2024-09-17T13:53:37.395Z)
Latitude-0.00002°
Longitude103.06375°
Altitude370.287 km
Speed7.687 km/s
True Right ascension20h 33m 50s
True Declination0° 00' 00"
Sunlit
Object was in full shadow at TLE epoch
Predictive object data (real-time)
Latitude20.19049°
Longitude100.77867°
Altitude368.125 km
Speed7.69 km/s
Apparent Right ascension22h 56m 29s
Apparent Declination-12° 25' 60"
Sunlit
Object is in full shadow
Predictive observer data (real-time)
Local Sidereal Time14:27:08
Azimuth74.529° E
Elevation-36.328°
Doppler factor1
Orbital elements
Apogee365.995 km
Perigee359.535 km
Semi-major axis6,740.902 km
Eccentricity0.0004792
Inclination97.1029°
RAAN308.4611°
Arg. of periapsis112.8683°
True anomaly247.25785°
Mean anomaly247.3085°
Eccentric anomaly247.28317°
Mean motion3.92163 °/min
BSTAR0.0028921
Period91.8 mins
No data available

ZHUHAI-1 OHS-01 Visibility forecast

Observer location: 39.9160978°, -105.1181434

ZHUHAI-1 OHS-01 is not visible in the next 10 days
Span
Click to sort rows by Start time (UTC) header in descending order
Start Az.
Max El. time (UTC)
Max El. Az.
Max El.
End time (UTC)
End Az.